Regional Weather Roundup
Issued by NWS

Home | Current Version | Previous Version | Graphics & Text | Print | Product List | Glossary On
Versions: 1 2 3 4 5 6 7 8 9 10 11 12 13 14 15 16 17 18 19 20 21 22 23 24 25 26 27 28 29 30 31 32 33 34 35 36 37 38 39 40 41 42 43 44 45 46 47 48 49 50
000
ASUS43 KLMK 262002
RWRKY
KENTUCKY REGIONAL WEATHER ROUNDUP
NATIONAL WEATHER SERVICE LOUISVILLE KY
400 PM EDT THU MAY 26 2016

NOTE "FAIR" INDICATES FEW OR NO CLOUDS BELOW 12,000 FEET
WITH NO SIGNIFICANT WEATHER AND/OR OBSTRUCTIONS TO VISIBILITY.

KYZ001>023-026-027-061>063-070>075-262100-
WESTERN AND SOUTH CENTRAL KENTUCKY

CITY           SKY/WX    TMP DP  RH WIND       PRES   REMARKS
PADUCAH        LGT RAIN  67  64  90 SE6       30.04F FOG
HENDERSON      FAIR      72  64  78 S9        30.00F
OWENSBORO      FAIR      72  67  84 SE14      30.04R
HOPKINSVILLE   PTSUNNY   72  66  81 N14       30.03R
BOWLING GREEN  TSTM      68  65  90 E5        30.09F FOG
GLASGOW        NOT AVBL
$$

KYZ024-025-028>034-038-045-046-053-262100-
NORTH CENTRAL KENTUCKY

CITY           SKY/WX    TMP DP  RH WIND       PRES   REMARKS
LOUISVILLE/SDF TSTM      68  64  87 SE10      30.04F
LOUISVILLE/LOU TSTM      67  64  90 SE6       30.06F FOG
FORT KNOX      TSTM      66  64  94 E7        30.05F
$$

KYZ035>037-039>044-047>052-055>060-089>105-262100-
NORTHEAST KENTUCKY

CITY           SKY/WX    TMP DP  RH WIND       PRES   REMARKS
LEXINGTON      PTSUNNY   79  68  69 SW12G20   30.06F
COVINGTON      TSTM      68  65  90 S8        30.02F
FRANKFORT      TSTM      69  64  84 CALM      30.07R
$$

KYZ054-064>069-076>088-106>120-262100-
SOUTHEAST KENTUCKY

CITY           SKY/WX    TMP DP  RH WIND       PRES   REMARKS
JACKSON        FAIR      74  63  68 VRB5      30.12F
LONDON         FAIR      77  64  64 S10       30.11F
SOMERSET       NOT AVBL
MIDDLESBORO    NOT AVBL
MONTICELLO     CLOUDY    82  71  69 E6        30.10S
$$




USA.gov is the U.S. government's official web portal to all federal, state and local government web resources and services.